CW7409 Weather Reports


Display with metric or nautical units.
time (UTC)temp
F
wind
direction
speed
MPH
gust
MPH
rain 1hr
in
rain 24hr
in
rain mn
in
humidity
%
barometer
mb
20260507054914 47 229 12.0 17.0 0.00 0.00 0.00 73 1013.9
20260507053915 47 214 10.0 15.0 0.00 0.00 0.00 72 1014.0
20260507050914 47 235 10.0 14.0 0.00 0.00 0.00 68 1014.0
20260507044914 47 226 10.0 14.0 0.00 0.00 0.00 65 1014.2
20260507033914 47 243 8.0 12.0 0.00 0.00 0.00 59 1014.5
20260507031914 48 229 6.0 9.0 0.00 0.00 0.00 55 1014.5
20260507024914 49 243 6.0 9.0 0.00 0.00 0.00 50 1014.5
20260507014914 54 226 2.0 3.0 0.00 0.00 0.00 39 1014.0
20260507013914 55 221 3.0 5.0 0.00 0.00 0.00 37 1014.0
20260507011914 57 235 5.0 6.0 0.00 0.00 0.00 34 1014.0
20260507004915 59 266 7.0 12.0 0.00 0.00 0.00 31 1014.0
20260507001915 60 260 6.0 12.0 0.00 0.00 0.00 30 1014.2
20260507000914 60 325 9.0 13.0 0.00 0.00 0.00 30 1014.1
20260506231914 61 276 10.0 15.0 0.00 0.00 0.00 27 1014.5
20260506230914 62 298 8.0 13.0 0.00 0.00 0.00 28 1014.5
20260506223914 62 324 7.0 17.0 0.00 0.00 0.00 28 1014.8
20260506220916 60 306 10.0 16.0 0.00 0.00 0.00 29 1014.9
20260506203915 59 242 4.0 20.0 0.00 0.00 0.00 30 1016.2
20260506201914 60 285 13.0 20.0 0.00 0.00 0.00 28 1016.3
20260506200916 61 263 10.0 22.0 0.00 0.00 0.00 28 1016.4
20260506194914 60 281 9.0 18.0 0.00 0.00 0.00 30 1016.6
20260506174915 58 17 10.0 17.0 0.00 0.00 0.00 34 1017.6
20260506171914 56 254 10.0 15.0 0.00 0.00 0.00 35 1017.9
20260506170914 55 279 11.0 15.0 0.00 0.00 0.00 35 1018.0
20260506154914 53 323 8.0 12.0 0.00 0.00 0.00 37 1018.2
20260506151914 52 286 5.0 8.0 0.00 0.00 0.00 39 1018.1
20260506144914 51 8 4.0 6.0 0.00 0.00 0.00 41 1017.9
20260506133914 49 352 3.0 6.0 0.00 0.00 0.00 46 1017.7
20260506124914 44 347 5.0 7.0 0.00 0.00 0.00 60 1017.1
20260506121914 42 337 3.0 6.0 0.00 0.00 0.00 66 1016.6
20260506114914 42 339 3.0 3.0 0.00 0.00 0.00 66 1016.1
20260506113915 42 327 2.0 3.0 0.00 0.00 0.00 66 1015.9
20260506111915 42 323 1.0 3.0 0.00 0.00 0.00 66 1015.8
20260506104915 43 314 2.0 3.0 0.00 0.00 0.00 63 1015.7
20260506103915 43 321 2.0 3.0 0.00 0.00 0.00 63 1015.7
20260506091914 44 300 2.0 3.0 0.00 0.00 0.00 59 1015.4
20260506090914 44 321 1.0 2.0 0.00 0.00 0.00 58 1015.2
20260506083915 44 349 2.0 3.0 0.00 0.00 0.00 58 1014.9
20260506081915 45 354 3.0 3.0 0.00 0.00 0.00 56 1014.8
20260506080914 45 341 3.0 5.0 0.00 0.00 0.00 56 1014.7
20260506071914 46 8 3.0 5.0 0.00 0.00 0.00 54 1014.2
20260506060914 47 10 3.0 5.0 0.00 0.00 0.00 51 1013.9